Weather Roundup
Issued by NWS Chicago, IL

Home | Current Version | Previous Version | Text Only | Print | Product List | Glossary Off
Versions: 1 2 3 4 5 6 7 8 9 10 11 12 13 14 15 16 17 18 19 20 21 22 23 24 25 26 27 28 29 30 31 32 33 34 35 36 37 38 39 40 41 42 43 44 45 46 47 48 49 50

000
NZUS59 KLOT 301800
HRRLOT

CHICAGO AREA WEATHER ROUNDUP
NATIONAL WEATHER SERVICE CHICAGO/ROMEOVILLE IL
100 PM CDT WED JUL 30 2014

NOTE: "FAIR" INDICATES FEW OR NO CLOUDS BELOW 12,000 FEET WITH NO
SIGNIFICANT WEATHER AND/OR OBSTRUCTIONS TO VISIBILITY.

* THESE STATIONS ARE NOT UNDER NWS QUALITY CONTROL. THEY ALSO MAY NOT
  REPORT WEATHER SUCH AS PRECIPITATION OR FOG.

ILZ005-006-012>014-019>023-301900-
NORTHEAST ILLINOIS

CITY           SKY/WX    TMP DP  RH WIND       PRES   REMARKS
OHARE            N/A     78  52  40 W8        30.03F
6HR MIN TEMP:  63; 6HR MAX TEMP:  78;

MIDWAY           N/A     78  54  43 VRB3G16   30.02F
6HR MIN TEMP:  65; 6HR MAX TEMP:  80;

AURORA           N/A     76  59  55 NW8       30.05F
6HR MIN TEMP:  60; 6HR MAX TEMP:  76;

WAUKEGAN         N/A     69  59  70 NE8       30.03F
6HR MIN TEMP:  59; 6HR MAX TEMP:  71;

DUPAGE AIRPORT   N/A     78  57  48 W13       30.03F
6HR MIN TEMP:  62; 6HR MAX TEMP:  78;

WHEELING         N/A     77  55  46 VRB7      30.04F
6HR MIN TEMP:  63; 6HR MAX TEMP:  78;

NORTHERLY IS     N/A     69  61  75 NE7         N/A
$$

WIZ051-052-058>065-066-070>072-301900-
SOUTHEAST WISCONSIN

CITY           SKY/WX    TMP DP  RH WIND       PRES   REMARKS
MILWAUKEE        N/A     69  58  67 NE10      30.05F
6HR MIN TEMP:  61; 6HR MAX TEMP:  69;

KENOSHA*         N/A     70  60  70 NW8       30.05F
RACINE*          N/A     69  57  65 N8        30.07S
WAUKESHA       MOSUNNY   68  57  68 W6        30.06F
$$

INZ001>003-010>013-019-020-301900-
NORTHWEST INDIANA

CITY           SKY/WX    TMP DP  RH WIND       PRES   REMARKS
GARY*          MOSUNNY   75  61  60 NE9       30.04F
MICHIGAN CITY* NOT AVBL
RENSSELAER*    NOT AVBL
VALPARAISO       N/A     76  57  51 SW7       30.04F
$$

LMZ740>746-301900-
SOUTHERN LAKE MICHIGAN

STATION/POSITION TIME  SKY/WX   TEMP WIND        PRES    VSBY
                                AIR  DIR/SP/G
                 (UTC)          (F)  (DEG/KT/KT) (MB)    (MI)
HARRISON CRIB    1700            64   50/  7/  8   N/A
BURNHAM HARBOR   1800            68   30/  6/  8   N/A
CALUMET HARBOR   1700            66   60/  7/  9 1016.0F
BURNS HARBOR     NOT AVBL
MICHIGAN CITY    1700            67  260/  6/  7   N/A
$$

ABBREVIATIONS USED IN REMARKS
   TC - TEMPERATURE IN CELSIUS
  WCI - WIND CHILL INDEX
   HX - HEAT INDEX
  VSB - VISIBILITY
$$



USA.gov is the U.S. government's official web portal to all federal, state and local government web resources and services.